Miscellaneous Local Product
Issued by NWS North Platte, NE

Home | Current Version | Previous Version | Text Only | Print | Product List | Glossary On
Versions: 1 2 3 4 5 6 7 8 9 10 11 12 13 14 15 16 17 18 19 20 21 22 23 24 25 26 27 28 29 30 31 32 33 34 35 36 37 38 39 40 41 42 43 44 45 46 47 48 49 50
889
AXUS43 KLBF 290010
MISLBF


WESTERN AND NORTH CENTRAL NEBRASKA HOURLY WEATHER ROUNDUP
NATIONAL WEATHER SERVICE NORTH PLATTE NE
700 PM CDT TUE MAR 28 2017

NOTE: "FAIR" INDICATES FEW OR NO CLOUDS BELOW 12,000 FEET WITH NO
SIGNIFICANT WEATHER AND/OR OBSTRUCTIONS TO VISIBILITY.

NOTE: STATIONS NOT REPORTING VARIABLES SUCH AS SKY/WEATHER OR
PRESSURE ARE PROVIDED BY RAWS AND APRS NETWORKS AND ARE NOT UNDER
NATIONAL WEATHER SERVICE QUALITY CONTROL.

...OBSERVATIONS IN AND NEAR THE EASTERN PANHANDLE OF NEBRASKA...

CITY           SKY/WX    TMP DP  RH WIND       PRES   REMARKS
PINE RIDGE     LGT RAIN  44  42  93 E9        30.09R
CHADRON        LGT RAIN  45  41  86 SE12      30.07R
ALLIANCE       LGT RAIN  41  40  96 E14       30.03S FOG
SIDNEY         CLOUDY    41  39  93 E16G26    29.98R
$$

...OBSERVATIONS IN NORTHERN NEBRASKA AND FAR SOUTHERN SOUTH DAKOTA...

CITY           SKY/WX    TMP DP  RH WIND       PRES   REMARKS
WINNER         LGT RAIN  48  41  76 S8        30.12R
VALENTINE      LGT RAIN  43  40  89 NE6       30.12R FOG
THEDFORD       RAIN      44  42  93 SE6       30.10R
AINSWORTH      DRIZZLE   46  44  93 NE9       30.10R
O`NEILL        CLOUDY    53  40  62 NE6       30.09R
ORD            CLOUDY    49  39  68 SE6       30.07R
BROKEN BOW     LGT RAIN  47  40  76 E9        30.07R
VALENTINE NWR    N/A     45  42  88 E7          N/A
HALSEY           N/A     43  41  94 SE3G12      N/A
BUTTE            N/A     51  39  64 CALM        N/A
CHAMBERS         N/A     53  38  57 SE6         N/A
EWING            N/A     54  43  66 CALM        N/A
$$

...OBSERVATIONS IN SOUTHWEST NEBRASKA AND FAR NORTHEAST COLORADO...

CITY           SKY/WX    TMP DP  RH WIND       PRES   REMARKS
HOLYOKE        CLOUDY    43  41  93 SE14      29.98R
IMPERIAL       LGT RAIN  43  41  93 E15       29.97F
OGALLALA       LGT RAIN  45  44  95 E12       30.00F
NORTH PLATTE   LGT RAIN  46  43  89 E17       30.05R FOG
MCCOOK         RAIN      46  46 100 NE5       30.00F FOG
LEXINGTON      LGT RAIN  46  42  85 NE10      30.04R
STAPLETON        N/A     42  40  93 CALM        N/A
GOTHENBURG       N/A     46  42  86 E9          N/A
CALLAWAY         N/A     45  42  88 E9          N/A
$$

...OBSERVATIONS IN CENTRAL LINCOLN COUNTY AREA...

CITY           SKY/WX    TMP DP  RH WIND       PRES   REMARKS
N.P. AIRPORT   LGT RAIN  46  43  89 E17       30.05R FOG
N.P. DOWNTOWN    N/A     44  42  93 E9G17       N/A
N.P. SOUTHEAST   N/A     44  42  92 NE6G14      N/A
N.P. HILLCREST   N/A     44  42  93 E14         N/A
$$

...SOME OBSERVATIONS FROM AROUND THE REGION...

CITY           SKY/WX    TMP DP  RH WIND       PRES   REMARKS
DENVER         LGT RAIN  43  42  97 N17       29.89R VSB 1/4
LIMON          CLOUDY    41  40  96 SE14      29.89R
ASPEN          LGT RAIN  38  34  85 NW10      29.90R FOG     WCI  31
LARAMIE        MIX PCPN  35  35 100 N14       30.01R WCI  26
CASPER         CLOUDY    42  34  73 NE13      30.09R
CHEYENNE       RAIN      39  37  92 NE14      29.97R FOG     WCI  31
SCOTTSBLUFF    CLOUDY    44  40  85 E10       30.02R
GRAND ISLAND   CLOUDY    46  42  86 NE10      30.06F
OMAHA          CLOUDY    51  41  68 E9        30.10R
SIOUX FALLS    CLOUDY    57  38  48 E12       30.11R
PIERRE         CLOUDY    52  43  71 W9        30.09R
RAPID CITY     LGT RAIN  45  42  89 S3        30.08R
BISMARCK       PTSUNNY   60  36  40 S13       30.10R
KANSAS CITY    CLOUDY    53  49  86 E12       30.03R
HILL CITY      RAIN      46  46 100 NE13      29.98F FOG
WICHITA        CLOUDY    54  48  80 E20G31    29.84F
DODGE CITY     RAIN      46  45  96 E21G32    29.83F FOG
OKLAHOMA CITY  LGT RAIN  66  60  81 E15       29.71F
DALLAS         MOCLDY    81  64  56 SE18      29.64F
AMARILLO       CLOUDY    52  49  89 NE16      29.70F
$$




USA.gov is the U.S. government's official web portal to all federal, state and local government web resources and services.